LAP1301 SGAS-SBGR

Flight info

Callsign LAP1301
Flight time 1h 24m
Altitude 37000
Route ROLOK ROLOK UM548 KAMIL UZ28 XONUG UZ121 BUXUK
Aircraft B77W/H-SDE1E2E3FGHIJ2J3J4J5M1RWXY/LB1D1

Departure

Time 2026-05-07 17:39
Airport Silvio Pettirossi International Airport (SGAS)

Arrival

Time 2026-05-07 19:03
Airport São Paulo/Guarulhos–Governor André Franco Montoro International Airport (SBGR)
Time Latitude Longitude Altitude Speed Heading
2026-05-07 17:39 -25.20591 -57.35725 7649 ft 310 kts 95°
2026-05-07 17:39 -25.21068 -57.33375 8291 ft 316 kts 95°
2026-05-07 17:39 -25.21554 -57.30991 8940 ft 322 kts 95°
2026-05-07 17:40 -25.22046 -57.28566 9488 ft 331 kts 96°
2026-05-07 17:40 -25.22554 -57.26069 10143 ft 336 kts 97°
2026-05-07 17:40 -25.23078 -57.23479 10510 ft 353 kts 97°
2026-05-07 17:40 -25.23622 -57.20792 10859 ft 369 kts 98°
2026-05-07 17:41 -25.24202 -57.17923 11172 ft 386 kts 98°
2026-05-07 17:41 -25.24797 -57.14992 11481 ft 402 kts 98°
2026-05-07 17:41 -25.25418 -57.11930 11850 ft 415 kts 99°
2026-05-07 17:41 -25.26061 -57.08763 12384 ft 422 kts 99°
2026-05-07 17:42 -25.26704 -57.05596 13044 ft 425 kts 99°
2026-05-07 17:42 -25.27345 -57.02441 13722 ft 427 kts 99°
2026-05-07 17:42 -25.28004 -56.99193 14358 ft 431 kts 99°
2026-05-07 17:42 -25.28653 -56.95987 14989 ft 434 kts 99°
2026-05-07 17:43 -25.29310 -56.92743 15651 ft 437 kts 99°
2026-05-07 17:43 -25.29981 -56.89420 16321 ft 440 kts 99°
2026-05-07 17:43 -25.30649 -56.86113 16942 ft 444 kts 99°
2026-05-07 17:43 -25.31316 -56.82806 17518 ft 449 kts 99°
2026-05-07 17:44 -25.31998 -56.79424 18157 ft 452 kts 99°
2026-05-07 17:44 -25.32675 -56.76057 18691 ft 457 kts 99°
2026-05-07 17:44 -25.33366 -56.72622 19196 ft 463 kts 99°
2026-05-07 17:44 -25.34068 -56.69126 19726 ft 468 kts 99°
2026-05-07 17:45 -25.34772 -56.65621 20293 ft 472 kts 99°
2026-05-07 17:45 -25.35479 -56.62078 20845 ft 476 kts 98°
2026-05-07 17:45 -25.35993 -56.58441 21308 ft 480 kts 93°
2026-05-07 17:45 -25.36414 -56.54764 21872 ft 483 kts 93°
2026-05-07 17:46 -25.36831 -56.51078 22380 ft 488 kts 92°
2026-05-07 17:46 -25.37255 -56.47322 22895 ft 493 kts 93°
2026-05-07 17:46 -25.37679 -56.43579 23454 ft 496 kts 93°
2026-05-07 17:46 -25.38107 -56.39789 23951 ft 501 kts 93°
2026-05-07 17:47 -25.38536 -56.35988 24444 ft 505 kts 93°
2026-05-07 17:47 -25.38971 -56.32124 24865 ft 510 kts 93°
2026-05-07 17:47 -25.39413 -56.28198 25278 ft 515 kts 93°
2026-05-07 17:47 -25.39858 -56.24233 25689 ft 520 kts 93°
2026-05-07 17:48 -25.40300 -56.20288 26178 ft 522 kts 93°
2026-05-07 17:48 -25.40747 -56.16295 26584 ft 526 kts 93°
2026-05-07 17:48 -25.41194 -56.12288 26975 ft 531 kts 94°
2026-05-07 17:48 -25.41646 -56.08229 27357 ft 535 kts 94°
2026-05-07 17:49 -25.42096 -56.04176 27732 ft 539 kts 94°
2026-05-07 17:49 -25.42551 -56.00058 28065 ft 544 kts 94°
2026-05-07 17:49 -25.43010 -55.95912 28487 ft 546 kts 94°
2026-05-07 17:49 -25.43475 -55.91692 28900 ft 549 kts 94°
2026-05-07 17:50 -25.43938 -55.87474 29288 ft 552 kts 94°
2026-05-07 17:50 -25.44395 -55.83309 29769 ft 552 kts 94°
2026-05-07 17:50 -25.44855 -55.79103 30287 ft 552 kts 94°
2026-05-07 17:50 -25.45314 -55.74896 30770 ft 552 kts 94°
2026-05-07 17:51 -25.45772 -55.70684 31187 ft 553 kts 95°
2026-05-07 17:51 -25.46232 -55.66439 31577 ft 555 kts 95°
2026-05-07 17:51 -25.46696 -55.62141 32001 ft 556 kts 95°
2026-05-07 17:51 -25.47156 -55.57869 32489 ft 556 kts 95°
2026-05-07 17:52 -25.47611 -55.53638 32960 ft 555 kts 95°
2026-05-07 17:52 -25.48065 -55.49394 33394 ft 556 kts 95°
2026-05-07 17:52 -25.48519 -55.45137 33821 ft 557 kts 95°
2026-05-07 17:52 -25.48973 -55.40868 34247 ft 558 kts 95°
2026-05-07 17:53 -25.49422 -55.36642 34761 ft 557 kts 95°
2026-05-07 17:53 -25.49873 -55.32383 35218 ft 556 kts 95°
2026-05-07 17:53 -25.50320 -55.28150 35521 ft 558 kts 95°
2026-05-07 17:53 -25.50771 -55.23862 35766 ft 560 kts 95°
2026-05-07 17:54 -25.51219 -55.19597 36080 ft 561 kts 95°
2026-05-07 17:54 -25.51664 -55.15344 36437 ft 560 kts 95°
2026-05-07 17:54 -25.52111 -55.11057 36764 ft 560 kts 95°
2026-05-07 17:54 -25.52559 -55.06750 36782 ft 562 kts 95°
2026-05-07 17:55 -25.53445 -54.98206 36789 ft 559 kts 96°
2026-05-07 17:55 -25.54328 -54.89631 36802 ft 560 kts 96°
2026-05-07 17:56 -25.55204 -54.81072 36817 ft 560 kts 96°
2026-05-07 17:56 -25.56076 -54.72507 36826 ft 560 kts 95°
2026-05-07 17:57 -25.56793 -54.65420 36837 ft 560 kts 95°
2026-05-07 17:57 -25.57798 -54.55470 36844 ft 559 kts 96°
2026-05-07 17:58 -25.58361 -54.46868 36854 ft 558 kts 89°
2026-05-07 17:58 -25.58426 -54.38266 36855 ft 564 kts 89°
2026-05-07 17:59 -25.58480 -54.29527 36836 ft 573 kts 89°
2026-05-07 17:59 -25.58533 -54.20651 36834 ft 581 kts 88°
2026-05-07 18:00 -25.58582 -54.11695 36841 ft 586 kts 89°
2026-05-07 18:00 -25.58628 -54.02684 36834 ft 590 kts 89°
2026-05-07 18:01 -25.58669 -53.93630 36838 ft 590 kts 89°
2026-05-07 18:01 -25.58705 -53.84513 36853 ft 590 kts 89°
2026-05-07 18:02 -25.57688 -53.71035 36874 ft 585 kts 76°
2026-05-07 18:03 -25.56056 -53.62217 36881 ft 585 kts 75°
2026-05-07 18:03 -25.54421 -53.53471 36894 ft 585 kts 75°
2026-05-07 18:04 -25.52771 -53.44673 36895 ft 585 kts 75°
2026-05-07 18:04 -25.51116 -53.35878 36909 ft 584 kts 75°
2026-05-07 18:05 -25.49457 -53.27087 36906 ft 583 kts 75°
2026-05-07 18:05 -25.47797 -53.18327 36911 ft 583 kts 75°
2026-05-07 18:06 -25.46126 -53.09536 36913 ft 582 kts 75°
2026-05-07 18:06 -25.44454 -53.00769 36919 ft 582 kts 75°
2026-05-07 18:07 -25.42782 -52.92038 36930 ft 582 kts 75°
2026-05-07 18:07 -25.41098 -52.83284 36933 ft 582 kts 75°
2026-05-07 18:08 -25.39420 -52.74597 36942 ft 579 kts 75°
2026-05-07 18:08 -25.37738 -52.65912 36953 ft 580 kts 76°
2026-05-07 18:09 -25.36043 -52.57196 36958 ft 579 kts 75°
2026-05-07 18:09 -25.34347 -52.48493 36973 ft 579 kts 75°
2026-05-07 18:10 -25.32651 -52.39827 36991 ft 578 kts 75°
2026-05-07 18:10 -25.30940 -52.31112 36980 ft 579 kts 75°
2026-05-07 18:11 -25.29232 -52.22443 36991 ft 578 kts 75°
2026-05-07 18:11 -25.27513 -52.13774 36998 ft 579 kts 75°
2026-05-07 18:12 -25.25797 -52.05145 37016 ft 579 kts 75°
2026-05-07 18:12 -25.24064 -51.96456 37016 ft 578 kts 75°
2026-05-07 18:13 -25.22331 -51.87793 37018 ft 578 kts 75°
2026-05-07 18:13 -25.20588 -51.79111 37034 ft 578 kts 76°
2026-05-07 18:14 -25.18853 -51.70492 37034 ft 578 kts 75°
2026-05-07 18:14 -25.17106 -51.61846 37041 ft 577 kts 75°
2026-05-07 18:15 -25.15350 -51.53190 37046 ft 578 kts 75°
2026-05-07 18:15 -25.13588 -51.44544 37044 ft 577 kts 75°
2026-05-07 18:16 -25.11825 -51.35924 37048 ft 577 kts 76°
2026-05-07 18:16 -25.10061 -51.27321 37032 ft 577 kts 75°
2026-05-07 18:17 -25.08292 -51.18724 37026 ft 576 kts 76°
2026-05-07 18:17 -25.06512 -51.10099 37010 ft 577 kts 75°
2026-05-07 18:18 -25.04744 -51.01556 36994 ft 575 kts 75°
2026-05-07 18:18 -25.02951 -50.92951 36998 ft 575 kts 76°
2026-05-07 18:19 -25.01166 -50.84419 37015 ft 574 kts 76°
2026-05-07 18:19 -24.99369 -50.75859 37033 ft 575 kts 76°
2026-05-07 18:20 -24.97576 -50.67341 37049 ft 574 kts 76°
2026-05-07 18:20 -24.95768 -50.58763 37049 ft 573 kts 76°
2026-05-07 18:21 -24.93965 -50.50234 37051 ft 572 kts 76°
2026-05-07 18:21 -24.92166 -50.41746 37059 ft 573 kts 76°
2026-05-07 18:22 -24.90349 -50.33195 37047 ft 572 kts 75°
2026-05-07 18:22 -24.88542 -50.24733 37051 ft 572 kts 76°
2026-05-07 18:23 -24.86711 -50.16185 37065 ft 571 kts 76°
2026-05-07 18:23 -24.84899 -50.07753 37063 ft 570 kts 76°
2026-05-07 18:24 -24.83064 -49.99235 37073 ft 570 kts 76°
2026-05-07 18:24 -24.81244 -49.90814 37072 ft 569 kts 76°
2026-05-07 18:25 -24.79400 -49.82310 37073 ft 570 kts 75°
2026-05-07 18:25 -24.77260 -49.73972 37081 ft 568 kts 73°
2026-05-07 18:26 -24.75055 -49.65661 37073 ft 568 kts 73°
2026-05-07 18:26 -24.72841 -49.57286 37064 ft 569 kts 73°
2026-05-07 18:27 -24.70647 -49.48980 37056 ft 568 kts 73°
2026-05-07 18:27 -24.68451 -49.40668 37044 ft 567 kts 74°
2026-05-07 18:28 -24.66260 -49.32339 37016 ft 568 kts 73°
2026-05-07 18:28 -24.64092 -49.24063 37005 ft 568 kts 73°
2026-05-07 18:29 -24.61904 -49.15733 37021 ft 567 kts 73°
2026-05-07 18:29 -24.59677 -49.07441 37031 ft 568 kts 73°
2026-05-07 18:30 -24.57425 -48.99102 37039 ft 566 kts 73°
2026-05-07 18:30 -24.55199 -48.90875 37038 ft 567 kts 73°
2026-05-07 18:31 -24.52947 -48.82563 37033 ft 567 kts 73°
2026-05-07 18:31 -24.50706 -48.74309 37029 ft 566 kts 74°
2026-05-07 18:32 -24.48475 -48.66051 37015 ft 566 kts 74°
2026-05-07 18:32 -24.46245 -48.57816 37003 ft 565 kts 74°
2026-05-07 18:33 -24.44003 -48.49559 36990 ft 564 kts 74°
2026-05-07 18:33 -24.41765 -48.41334 36993 ft 565 kts 74°
2026-05-07 18:34 -24.39512 -48.33077 36982 ft 564 kts 73°
2026-05-07 18:34 -24.37072 -48.24964 36974 ft 564 kts 65°
2026-05-07 18:35 -24.32981 -48.17652 36969 ft 562 kts 48°
2026-05-07 18:35 -24.27326 -48.11903 36959 ft 555 kts 31°
2026-05-07 18:36 -24.20684 -48.07658 36959 ft 552 kts 25°
2026-05-07 18:36 -24.13909 -48.03633 36970 ft 551 kts 24°
2026-05-07 18:37 -24.07152 -47.99643 36993 ft 551 kts 25°
2026-05-07 18:37 -24.00492 -47.95720 36475 ft 538 kts 25°
2026-05-07 18:37 -23.97223 -47.93800 35256 ft 543 kts 25°
2026-05-07 18:38 -23.93852 -47.91824 33814 ft 548 kts 25°
2026-05-07 18:38 -23.90534 -47.89878 32632 ft 548 kts 25°
2026-05-07 18:38 -23.87178 -47.87911 31991 ft 538 kts 26°
2026-05-07 18:38 -23.83897 -47.85987 31652 ft 525 kts 26°
2026-05-07 18:39 -23.80734 -47.84135 31193 ft 516 kts 25°
2026-05-07 18:39 -23.77618 -47.82197 30498 ft 514 kts 31°
2026-05-07 18:39 -23.75702 -47.80683 30027 ft 514 kts 37°
2026-05-07 18:39 -23.72202 -47.77190 29276 ft 507 kts 42°
2026-05-07 18:40 -23.69634 -47.74490 28295 ft 510 kts 42°
2026-05-07 18:40 -23.67096 -47.71817 27375 ft 507 kts 42°
2026-05-07 18:40 -23.64601 -47.69187 26793 ft 490 kts 42°
2026-05-07 18:40 -23.62180 -47.66634 26496 ft 474 kts 42°
2026-05-07 18:41 -23.59831 -47.64162 26224 ft 473 kts 42°
2026-05-07 18:41 -23.57438 -47.61647 25884 ft 473 kts 42°
2026-05-07 18:41 -23.55089 -47.59180 25640 ft 475 kts 42°
2026-05-07 18:41 -23.52689 -47.56660 25197 ft 472 kts 42°
2026-05-07 18:42 -23.50347 -47.54201 24808 ft 465 kts 42°
2026-05-07 18:42 -23.48013 -47.51752 24455 ft 458 kts 41°
2026-05-07 18:42 -23.45743 -47.49374 24115 ft 453 kts 42°
2026-05-07 18:42 -23.43474 -47.46998 23773 ft 452 kts 41°
2026-05-07 18:43 -23.41215 -47.44633 23433 ft 451 kts 41°
2026-05-07 18:43 -23.38946 -47.42259 23092 ft 448 kts 41°
2026-05-07 18:43 -23.36710 -47.39920 22778 ft 444 kts 41°
2026-05-07 18:43 -23.34491 -47.37599 22516 ft 442 kts 41°
2026-05-07 18:44 -23.32278 -47.35286 22247 ft 441 kts 42°
2026-05-07 18:44 -23.30059 -47.32968 21966 ft 438 kts 41°
2026-05-07 18:44 -23.27861 -47.30673 21682 ft 435 kts 41°
2026-05-07 18:44 -23.25708 -47.28425 21411 ft 431 kts 41°
2026-05-07 18:45 -23.23550 -47.26174 21145 ft 429 kts 41°
2026-05-07 18:45 -23.21382 -47.23914 20873 ft 427 kts 42°
2026-05-07 18:45 -23.19235 -47.21676 20601 ft 423 kts 42°
2026-05-07 18:45 -23.17110 -47.19462 20347 ft 419 kts 42°
2026-05-07 18:46 -23.15032 -47.17298 20084 ft 416 kts 42°
2026-05-07 18:46 -23.12979 -47.15083 19818 ft 414 kts 45°
2026-05-07 18:46 -23.11022 -47.12755 19573 ft 412 kts 46°
2026-05-07 18:46 -23.09093 -47.10451 19321 ft 410 kts 46°
2026-05-07 18:47 -23.07193 -47.08190 19064 ft 407 kts 46°
2026-05-07 18:47 -23.05277 -47.05919 18603 ft 408 kts 46°
2026-05-07 18:47 -23.03340 -47.03627 17937 ft 409 kts 46°
2026-05-07 18:47 -23.01418 -47.01359 17314 ft 408 kts 46°
2026-05-07 18:48 -22.99515 -46.99115 16531 ft 399 kts 47°
2026-05-07 18:48 -22.97684 -46.96959 16092 ft 381 kts 46°
2026-05-07 18:48 -22.95906 -46.94866 16038 ft 371 kts 47°
2026-05-07 18:48 -22.94199 -46.92859 15316 ft 365 kts 47°
2026-05-07 18:49 -22.92498 -46.90860 14686 ft 355 kts 47°
2026-05-07 18:49 -22.90836 -46.88908 14199 ft 342 kts 46°
2026-05-07 18:49 -22.89331 -46.87048 14027 ft 323 kts 56°
2026-05-07 18:49 -22.88467 -46.84880 14013 ft 308 kts 78°
2026-05-07 18:50 -22.88497 -46.82587 14043 ft 311 kts 100°
2026-05-07 18:50 -22.89378 -46.80406 13688 ft 320 kts 124°
2026-05-07 18:50 -22.91050 -46.78812 13379 ft 322 kts 150°
2026-05-07 18:50 -22.93098 -46.77905 13127 ft 318 kts 154°
2026-05-07 18:51 -22.95056 -46.76810 12872 ft 315 kts 145°
2026-05-07 18:51 -22.96874 -46.75473 12607 ft 317 kts 141°
2026-05-07 18:51 -22.98635 -46.74033 12330 ft 315 kts 140°
2026-05-07 18:51 -23.00372 -46.72562 12055 ft 313 kts 139°
2026-05-07 18:52 -23.02062 -46.71116 11791 ft 312 kts 139°
2026-05-07 18:52 -23.03767 -46.69653 11523 ft 310 kts 139°
2026-05-07 18:52 -23.05461 -46.68200 11253 ft 307 kts 139°
2026-05-07 18:52 -23.07127 -46.66769 10988 ft 305 kts 139°
2026-05-07 18:53 -23.08771 -46.65357 10725 ft 302 kts 139°
2026-05-07 18:53 -23.10410 -46.63949 10463 ft 300 kts 139°
2026-05-07 18:53 -23.12057 -46.62533 10195 ft 297 kts 139°
2026-05-07 18:53 -23.13680 -46.61138 9937 ft 295 kts 139°
2026-05-07 18:54 -23.15267 -46.59773 9682 ft 293 kts 139°
2026-05-07 18:54 -23.16880 -46.58386 9415 ft 291 kts 139°
2026-05-07 18:54 -23.18458 -46.57055 9159 ft 289 kts 145°
2026-05-07 18:54 -23.20324 -46.56261 8891 ft 287 kts 173°
2026-05-07 18:55 -23.22287 -46.56431 8626 ft 282 kts 201°
2026-05-07 18:55 -23.24056 -46.57335 8395 ft 283 kts 212°
2026-05-07 18:55 -23.25749 -46.58461 8127 ft 282 kts 215°
2026-05-07 18:55 -23.27382 -46.59610 7943 ft 276 kts 216°
2026-05-07 18:56 -23.28973 -46.60740 7833 ft 268 kts 216°
2026-05-07 18:56 -23.30525 -46.61844 7561 ft 268 kts 216°
2026-05-07 18:56 -23.32069 -46.62941 7290 ft 261 kts 216°
2026-05-07 18:56 -23.33562 -46.64000 7096 ft 247 kts 216°
2026-05-07 18:57 -23.34954 -46.64989 6922 ft 232 kts 216°
2026-05-07 18:57 -23.36271 -46.65924 6745 ft 219 kts 217°
2026-05-07 18:57 -23.37533 -46.66824 6592 ft 214 kts 217°
2026-05-07 18:57 -23.38752 -46.67691 6429 ft 202 kts 217°
2026-05-07 18:58 -23.39899 -46.68504 6281 ft 194 kts 214°
2026-05-07 18:58 -23.41158 -46.69020 6128 ft 188 kts 189°
2026-05-07 18:58 -23.42444 -46.68978 6025 ft 182 kts 165°
2026-05-07 18:58 -23.43619 -46.68436 5909 ft 186 kts 143°
2026-05-07 18:59 -23.44525 -46.67493 5697 ft 176 kts 122°
2026-05-07 18:59 -23.45241 -46.66412 5537 ft 174 kts 120°
2026-05-07 18:59 -23.45932 -46.65330 5394 ft 173 kts 119°
2026-05-07 18:59 -23.46613 -46.64244 5244 ft 173 kts 119°
2026-05-07 19:00 -23.47241 -46.63138 5096 ft 170 kts 104°
2026-05-07 19:00 -23.47338 -46.61876 4944 ft 169 kts 76°
2026-05-07 19:00 -23.47090 -46.60665 4716 ft 160 kts 70°
2026-05-07 19:00 -23.46794 -46.59509 4490 ft 158 kts 69°
2026-05-07 19:01 -23.46504 -46.58360 4289 ft 157 kts 69°
2026-05-07 19:01 -23.46196 -46.57224 4117 ft 155 kts 68°
2026-05-07 19:01 -23.45886 -46.56086 4094 ft 155 kts 68°
2026-05-07 19:01 -23.45581 -46.54958 4107 ft 155 kts 68°
2026-05-07 19:02 -23.45256 -46.53772 4087 ft 177 kts 69°
2026-05-07 19:02 -23.44906 -46.52466 3459 ft 187 kts 70°
2026-05-07 19:02 -23.44546 -46.51141 2966 ft 179 kts 70°
2026-05-07 19:02 -23.44211 -46.49902 2709 ft 163 kts 70°
2026-05-07 19:03 -23.43898 -46.48764 2512 ft 147 kts 70°
2026-05-07 19:03 -23.43640 -46.47848 2472 ft 102 kts 75°
2026-05-07 19:03 -23.43498 -46.47298 2473 ft 49 kts 75°
2026-05-07 19:03 -23.43425 -46.47047 2473 ft 31 kts 65°
2026-05-07 19:04 -23.43293 -46.46869 2473 ft 29 kts 46°
2026-05-07 19:04 -23.43153 -46.46727 2474 ft 26 kts 18°
2026-05-07 19:04 -23.42978 -46.46752 2474 ft 24 kts 342°
2026-05-07 19:04 -23.42847 -46.46795 2474 ft 18 kts 343°
2026-05-07 19:05 -23.42780 -46.46884 2474 ft 17 kts 264°
2026-05-07 19:05 -23.42813 -46.47010 2474 ft 17 kts 253°
2026-05-07 19:05 -23.42799 -46.47121 2474 ft 14 kts 323°
2026-05-07 19:05 -23.42745 -46.47153 2474 ft 5 kts 313°
2026-05-07 19:06 -23.42735 -46.47183 2474 ft 4 kts 276°
2026-05-07 19:06 -23.42745 -46.47255 2474 ft 4 kts 256°
2026-05-07 19:06 -23.42748 -46.47266 2474 ft 0 kts 256°